Wind_Speed
31 33 34 35 35 35 37 38 39 38 37 36 36 36 37 37 37 38 39 40 41 43 44 44 45 45 46 47 47 47 48 48 48 49 49 50 50 49 49 49 49 48 48 48
31 32 34 35 36 36 36 36 37 38 37 36 37 37 37 38 38 38 39 40 41 42 43 44 44 44 45 46 47 47 48 48 49 50 50 50 50 50 50 50 50 50 48 48
28 30 32 34 34 35 36 35 36 36 36 37 38 38 38 38 38 39 39 41 42 43 44 45 45 45 45 46 47 47 49 49 49 50 50 50 50 50 50 50 50 50 49 49
26 27 29 30 30 32 34 35 36 36 36 36 37 38 39 39 39 39 39 40 41 43 44 45 46 45 45 46 47 48 49 49 49 50 50 50 50 50 50 50 49 49 50 50
25 27 28 28 28 29 31 32 34 35 36 36 37 37 38 39 40 40 40 40 41 43 44 44 45 46 45 45 46 47 48 48 48 48 49 49 49 49 49 49 49 50 50 51
25 26 28 27 27 27 29 31 32 32 33 35 36 37 37 37 38 38 39 40 40 41 43 44 45 45 45 46 46 47 47 47 48 48 48 48 48 48 48 49 49 50 50 51
25 26 26 26 26 26 28 29 30 31 32 33 34 34 35 36 37 38 38 39 40 41 42 44 45 45 45 46 46 47 47 47 47 47 47 47 48 48 49 49 49 50 50 50
26 26 27 26 27 27 26 26 28 29 31 32 33 33 34 36 37 37 38 39 40 41 42 43 45 45 46 46 47 47 47 47 47 46 47 47 47 48 49 50 50 50 50 50
26 26 26 28 28 28 28 27 28 28 30 31 32 32 33 34 35 37 37 39 40 41 42 43 44 46 46 46 47 46 46 46 46 47 48 48 48 49 49 49 49 49 49 49
25 25 27 28 28 29 29 29 29 30 30 31 32 32 33 34 34 36 38 39 40 42 43 44 44 45 46 46 46 45 45 46 46 47 48 48 48 48 48 48 48 48 48 49
25 24 26 28 29 30 30 30 31 32 32 32 32 33 34 34 35 37 38 40 41 42 43 44 44 44 45 45 45 45 45 46 47 47 47 48 48 48 48 47 48 48 47 47
24 25 26 27 27 28 29 30 31 32 32 33 33 33 34 35 35 37 38 39 40 41 42 43 44 44 45 45 46 45 45 46 46 46 47 46 46 46 46 46 46 46 45 45
24 25 26 26 26 26 27 28 28 29 31 31 33 33 34 34 35 36 37 38 39 40 41 42 42 43 44 44 45 45 45 45 44 44 44 44 44 45 45 45 45 45 44 43
23 25 26 26 27 27 26 26 27 28 29 31 32 33 33 34 35 36 36 37 38 38 39 39 40 41 42 43 43 43 43 43 43 42 43 43 43 43 43 43 42 42 41 40
23 23 25 26 27 27 28 28 28 28 29 30 31 32 32 32 33 34 34 34 34 35 36 36 37 38 39 40 40 41 41 41 41 41 41 41 41 41 41 41 40 39 39 38
22 22 23 24 25 26 27 28 28 28 29 30 30 31 31 31 32 32 32 32 32 32 33 33 34 35 36 37 38 39 40 40 40 40 40 40 40 39 39 39 39 38 38 37
21 22 22 23 24 25 26 27 27 28 28 29 29 29 29 30 30 30 30 30 31 31 32 32 32 33 34 34 35 35 36 36 37 38 38 38 38 38 38 38 37 36 36 36
20 21 22 22 23 24 24 25 26 27 28 28 28 28 28 28 28 28 28 28 29 30 30 31 31 32 32 32 32 32 33 33 34 35 35 34 34 34 35 34 34 34 33 33
20 20 21 22 22 23 24 25 26 26 26 27 27 27 27 27 27 28 28 28 28 28 29 29 30 30 30 31 31 31 30 31 31 31 31 32 32 32 32 31 31 31 31 31
21 21 21 21 22 22 23 24 24 25 26 26 27 26 26 26 26 26 26 27 27 27 27 27 28 28 28 27 27 28 28 28 28 29 29 29 29 29 29 29 29 29 29 30
20 21 21 22 22 23 23 23 24 24 24 24 24 24 24 24 24 24 24 24 25 25 25 25 25 25 25 25 25 25 25 25 26 26 27 27 27 27 27 27 26 27 27 27
19 20 21 21 21 21 21 21 21 21 21 21 22 22 22 22 23 23 23 23 23 24 24 24 24 24 24 23 23 23 23 24 24 24 25 25 25 25 25 25 24 24 24 24
19 19 20 20 20 20 19 19 19 20 20 20 20 20 20 21 22 22 22 22 22 22 22 22 22 23 23 23 23 23 23 23 24 24 24 23 23 23 23 23 23 24 23 23
19 19 19 19 20 20 20 19 19 19 19 19 19 19 20 20 21 21 20 20 21 21 21 21 21 21 21 21 22 22 22 23 22 22 22 21 21 21 21 21 21 22 22 22
18 18 18 19 19 19 19 19 19 19 19 18 19 19 19 20 19 19 19 19 19 19 20 20 20 20 20 20 20 21 21 21 21 20 20 20 19 19 19 19 19 19 20 20
18 18 18 18 18 18 18 18 18 18 17 17 18 18 18 18 18 18 18 18 18 18 19 19 19 19 20 20 20 20 20 19 19 19 18 18 18 18 17 18 18 18 18 18
18 18 18 17 17 17 18 18 17 17 17 17 18 18 18 17 17 17 17 17 17 17 17 18 18 18 19 19 19 19 19 18 18 18 18 18 17 17 17 17 17 17 17 16
Wind_Direction
240 238 236 236 235 234 235 236 238 239 240 240 242 243 244 245 245 244 243 243 242 242 242 243 245 246 247 249 251 252 254 256 258 259 261 262 264 266 267 269 270 271 271 272
241 241 239 238 237 236 236 237 239 240 240 239 241 242 245 245 245 245 244 244 243 243 243 244 245 247 248 250 252 253 255 257 259 261 262 264 265 266 268 269 270 270 271 273
242 242 242 240 238 238 239 239 241 241 241 242 243 243 244 245 246 246 245 245 245 244 245 245 247 248 249 251 253 256 257 258 260 262 263 264 265 267 268 269 269 270 271 273
242 241 242 241 239 240 240 240 241 241 241 243 244 244 244 245 246 245 246 246 246 246 247 248 249 250 251 253 255 257 258 259 261 263 264 265 266 267 267 268 269 271 272 273
242 242 242 241 241 242 242 242 242 243 243 244 245 244 244 245 246 247 247 247 248 248 248 249 250 252 253 254 256 258 259 260 261 263 264 265 266 267 267 268 270 271 273 274
242 243 241 241 242 244 244 245 244 245 246 246 245 245 245 247 247 247 247 247 249 249 249 250 251 253 255 256 257 259 260 261 262 263 264 266 266 267 268 270 272 273 274 275
245 244 242 241 242 243 245 246 246 247 247 246 246 246 246 246 247 247 248 249 250 251 251 252 253 254 256 257 258 259 261 262 263 264 265 266 267 268 269 271 273 274 275 276
245 246 245 242 242 244 247 247 247 247 247 247 247 248 248 249 249 250 250 250 251 252 253 253 254 256 257 258 259 260 262 263 264 265 266 266 267 268 270 271 273 274 275 277
247 248 248 247 247 247 247 248 248 249 249 249 248 249 250 251 251 252 253 253 253 255 255 256 256 257 258 259 259 261 262 263 265 266 267 267 268 269 271 272 272 274 275 277
248 248 248 249 250 251 252 252 252 252 252 252 252 252 252 253 254 255 255 255 256 257 258 258 258 259 259 260 260 262 263 264 265 266 267 268 269 270 271 271 272 274 277 278
250 250 250 251 251 252 254 256 256 256 256 257 257 256 256 256 257 258 258 258 259 260 260 260 260 260 260 260 261 262 264 265 267 267 268 269 270 270 270 271 273 275 277 278
253 253 253 254 254 255 256 256 256 256 257 258 258 259 259 260 261 261 261 261 261 261 261 261 261 261 261 262 263 264 265 267 268 268 269 269 269 270 271 273 274 275 276 278
255 254 255 255 256 256 258 258 258 258 258 258 258 259 261 262 262 263 263 263 263 263 263 263 263 263 263 264 264 265 266 267 267 267 268 268 269 270 271 273 274 274 275 276
258 256 256 256 256 256 257 259 259 260 260 260 260 261 263 263 263 264 264 265 265 265 264 264 263 264 264 264 264 265 265 265 266 267 267 268 269 269 270 271 272 273 274 276
259 259 259 259 259 259 259 260 261 261 261 262 263 264 264 265 265 265 265 265 266 265 265 265 264 264 264 264 264 265 265 265 266 267 267 268 269 270 270 271 271 272 274 275
263 262 261 260 260 260 260 261 261 262 263 264 266 267 266 267 267 266 265 265 265 265 265 265 265 265 265 265 265 266 266 266 266 267 267 268 270 270 270 271 271 272 273 275
267 264 263 262 262 263 264 264 263 263 265 266 268 268 268 269 268 266 266 265 266 265 265 265 265 265 266 266 266 267 267 266 266 267 268 268 268 269 270 271 273 274 274 275
270 268 266 265 265 266 265 265 265 265 266 267 268 270 271 270 268 267 268 268 268 267 266 265 265 265 266 266 266 266 266 266 266 266 266 267 268 269 271 273 274 274 274 275
272 271 270 269 269 269 267 267 267 268 268 268 270 271 271 271 271 269 269 269 269 269 268 267 267 266 265 265 266 266 266 266 266 265 266 267 268 270 272 273 273 273 274 275
271 271 271 272 272 272 271 270 270 271 270 271 271 271 272 272 271 270 270 269 268 269 269 269 269 268 267 266 266 267 267 267 267 267 268 269 271 272 273 273 273 273 275 277
273 273 273 272 272 273 273 273 272 272 272 271 271 271 272 272 272 271 270 270 269 269 268 268 268 268 267 267 267 267 267 268 268 269 270 271 272 272 272 272 273 275 277 278
277 276 276 275 274 274 275 275 273 271 271 272 273 273 274 274 273 272 272 271 270 269 269 269 268 268 267 267 267 267 267 268 269 270 272 272 273 272 271 271 273 276 279 279
279 279 278 276 275 275 275 274 273 272 273 274 275 275 275 275 274 274 273 272 272 272 271 270 270 269 268 267 267 267 268 269 271 271 272 273 272 271 271 273 275 277 278 278
280 279 278 276 275 274 275 274 274 273 274 274 275 276 276 277 277 276 274 273 273 273 273 273 271 269 268 268 268 267 269 270 270 271 271 270 271 272 274 276 276 276 277 279
279 278 278 277 276 274 273 274 275 275 275 275 277 278 278 278 277 277 276 275 273 273 272 272 270 269 269 269 269 269 270 269 269 269 268 269 271 273 274 276 278 279 280 281
280 279 279 278 276 275 275 275 276 275 275 276 278 280 280 279 278 278 278 276 274 273 272 272 272 271 271 271 271 271 270 268 268 268 269 270 270 271 272 275 279 282 284 284
279 278 276 277 277 277 276 275 274 274 275 278 280 280 279 279 279 280 280 278 276 275 275 274 273 273 274 273 272 271 269 267 267 268 269 269 269 270 273 277 280 282 283 283
Height
5544 5547 5551 5554 5558 5561 5565 5569 5574 5578 5583 5587 5590 5593 5596 5599 5602 5605 5609 5613 5616 5620 5623 5626 5630 5633 5636 5638 5641 5643 5645 5647 5648 5650 5651 5651 5652 5652 5652 5652 5652 5651 5651 5650
5538 5541 5544 5547 5550 5554 5558 5561 5565 5569 5574 5578 5581 5584 5587 5590 5593 5596 5599 5603 5606 5609 5612 5615 5619 5622 5624 5627 5629 5631 5633 5635 5636 5638 5638 5639 5640 5640 5640 5640 5640 5639 5639 5638
5532 5534 5536 5540 5544 5547 5551 5554 5558 5562 5567 5568 5572 5575 5578 5581 5584 5587 5589 5593 5596 5599 5602 5604 5608 5611 5614 5616 5618 5620 5621 5623 5624 5625 5626 5627 5627 5627 5627 5627 5627 5627 5626 5626
5525 5529 5531 5536 5537 5540 5543 5547 5550 5553 5557 5560 5563 5566 5569 5571 5574 5577 5580 5583 5585 5588 5591 5594 5596 5599 5602 5604 5606 5607 5609 5610 5611 5612 5613 5614 5614 5614 5614 5615 5615 5614 5614 5613
5520 5522 5525 5529 5532 5534 5537 5540 5542 5545 5548 5551 5554 5557 5560 5562 5564 5567 5570 5573 5575 5578 5580 5583 5585 5587 5590 5592 5594 5595 5596 5598 5599 5599 5600 5601 5601 5601 5602 5602 5602 5601 5601 5600
5515 5517 5520 5524 5526 5527 5530 5533 5536 5538 5540 5542 5545 5548 5551 5552 5555 5557 5560 5563 5565 5567 5569 5572 5574 5576 5578 5580 5582 5583 5584 5585 5586 5587 5588 5588 5589 5589 5589 5589 5589 5588 5588 5586
5509 5511 5513 5518 5519 5521 5525 5527 5528 5530 5532 5534 5536 5539 5541 5543 5545 5547 5550 5552 5554 5556 5558 5561 5563 5565 5567 5568 5570 5571 5572 5573 5574 5575 5575 5576 5576 5576 5576 5576 5576 5575 5575 5573
5503 5505 5510 5511 5513 5515 5517 5518 5520 5522 5523 5525 5528 5530 5532 5534 5535 5537 5539 5542 5544 5546 5548 5550 5551 5553 5555 5556 5558 5559 5560 5561 5562 5562 5563 5563 5563 5563 5563 5563 5563 5562 5561 5560
5498 5502 5503 5504 5506 5507 5509 5511 5513 5514 5516 5517 5519 5521 5523 5524 5526 5528 5529 5531 5533 5535 5537 5538 5540 5541 5543 5544 5546 5547 5548 5549 5549 5550 5550 5550 5551 5550 5550 5550 5550 5549 5548 5547
5491 5494 5495 5497 5498 5500 5502 5503 5505 5506 5508 5509 5511 5512 5514 5515 5516 5518 5519 5521 5522 5524 5525 5527 5528 5530 5531 5532 5533 5535 5536 5536 5537 5537 5537 5537 5537 5537 5537 5537 5536 5536 5535 5534
5485 5487 5488 5490 5491 5492 5494 5495 5497 5498 5499 5501 5502 5504 5505 5506 5507 5508 5509 5510 5511 5513 5514 5515 5517 5518 5519 5520 5521 5522 5523 5524 5524 5524 5524 5524 5524 5524 5524 5524 5523 5522 5521 5520
5479 5480 5482 5483 5483 5484 5486 5487 5488 5489 5490 5492 5493 5494 5495 5496 5497 5498 5499 5499 5500 5501 5502 5503 5504 5505 5506 5508 5509 5510 5511 5511 5511 5511 5511 5511 5511 5512 5511 5511 5510 5509 5508 5507
5472 5473 5474 5475 5476 5477 5478 5478 5479 5480 5481 5483 5484 5485 5486 5486 5487 5487 5488 5488 5489 5490 5490 5491 5492 5493 5494 5495 5496 5497 5498 5498 5498 5498 5499 5499 5499 5499 5499 5498 5497 5496 5495 5494
5465 5466 5467 5468 5469 5470 5470 5471 5472 5472 5473 5474 5475 5476 5476 5477 5477 5477 5478 5478 5478 5478 5479 5480 5480 5481 5482 5482 5483 5484 5485 5486 5486 5486 5486 5486 5486 5486 5486 5486 5486 5484 5483 5482
5459 5460 5460 5461 5462 5462 5463 5464 5464 5465 5465 5466 5466 5467 5467 5467 5467 5467 5467 5467 5467 5468 5468 5468 5469 5470 5470 5470 5471 5472 5473 5473 5474 5474 5474 5474 5474 5474 5474 5474 5473 5473 5472 5471
5453 5453 5453 5453 5454 5455 5455 5456 5456 5457 5457 5458 5458 5458 5458 5458 5458 5457 5457 5457 5458 5458 5458 5458 5458 5459 5459 5459 5460 5460 5461 5461 5462 5462 5462 5462 5462 5462 5462 5462 5461 5461 5460 5459
5446 5446 5446 5446 5447 5447 5448 5448 5448 5449 5449 5449 5449 5449 5449 5449 5448 5448 5448 5448 5448 5448 5448 5448 5448 5448 5448 5448 5449 5449 5449 5450 5450 5450 5451 5451 5451 5451 5450 5450 5450 5449 5449 5448
5440 5440 5440 5440 5440 5440 5440 5440 5440 5441 5441 5441 5441 5441 5440 5440 5440 5439 5439 5438 5438 5438 5438 5438 5438 5438 5438 5438 5438 5439 5439 5439 5439 5439 5439 5440 5440 5440 5440 5439 5439 5439 5438 5438
5433 5433 5433 5433 5433 5433 5433 5433 5433 5433 5433 5433 5433 5432 5432 5431 5431 5431 5430 5430 5429 5429 5429 5429 5428 5428 5429 5429 5429 5429 5429 5429 5429 5429 5429 5429 5429 5429 5429 5429 5429 5429 5428 5428
5427 5427 5427 5426 5426 5426 5426 5425 5425 5425 5425 5425 5425 5424 5424 5423 5422 5422 5421 5421 5421 5420 5420 5420 5419 5419 5419 5419 5419 5419 5419 5419 5420 5420 5420 5420 5420 5420 5420 5420 5419 5419 5419 5418
5421 5420 5420 5420 5419 5419 5418 5418 5418 5418 5417 5417 5417 5416 5416 5415 5414 5414 5413 5413 5412 5412 5412 5411 5411 5411 5411 5411 5411 5411 5411 5411 5411 5411 5411 5411 5411 5411 5411 5411 5411 5410 5410 5409
5415 5414 5414 5413 5412 5412 5412 5411 5411 5410 5410 5410 5409 5409 5408 5408 5407 5406 5406 5405 5405 5404 5404 5403 5403 5403 5403 5403 5403 5403 5403 5403 5403 5403 5403 5402 5402 5402 5402 5402 5402 5402 5402 5401
5409 5408 5407 5407 5406 5406 5406 5405 5404 5404 5404 5403 5403 5402 5401 5401 5400 5399 5399 5398 5397 5397 5396 5396 5396 5396 5396 5396 5396 5396 5396 5396 5396 5395 5395 5395 5395 5395 5395 5395 5394 5394 5394 5393
5403 5402 5402 5401 5401 5400 5400 5399 5398 5398 5397 5397 5396 5395 5395 5394 5393 5392 5391 5391 5390 5389 5389 5389 5388 5388 5388 5388 5389 5389 5389 5388 5388 5388 5388 5388 5388 5387 5387 5387 5387 5387 5386 5386
5397 5397 5396 5395 5395 5394 5394 5393 5392 5392 5391 5390 5390 5389 5388 5387 5386 5385 5385 5384 5383 5383 5383 5382 5382 5382 5382 5382 5382 5382 5382 5382 5381 5381 5381 5381 5381 5381 5381 5381 5380 5380 5379 5379
5392 5391 5390 5390 5389 5388 5388 5387 5386 5386 5385 5385 5384 5383 5382 5381 5380 5379 5378 5378 5377 5377 5376 5376 5376 5375 5375 5375 5375 5375 5375 5375 5375 5375 5375 5375 5375 5375 5375 5375 5374 5374 5373 5373
5386 5385 5385 5384 5383 5383 5382 5381 5381 5380 5380 5379 5378 5377 5376 5375 5374 5373 5373 5372 5371 5371 5370 5370 5369 5369 5369 5369 5369 5369 5369 5369 5369 5369 5369 5369 5369 5369 5369 5369 5368 5368 5367 5367